Regional Weather Roundup
Issued by NWS Spokane, WA

Home | Current Version | Previous Version | Text Only | Print | Product List | Glossary On
Versions: 1 2 3 4 5 6 7 8 9 10 11 12 13 14 15 16 17 18 19 20 21 22 23 24 25 26 27 28 29 30 31 32 33 34 35 36 37 38 39 40 41 42 43 44 45 46 47 48 49 50
000
NZUS01 KOTX 300710
RWROTX
EASTERN WASHINGTON/NORTHERN IDAHO ROUNDUP
NATIONAL WEATHER SERVICE, SPOKANE WA
1200 AM PDT SAT AUG 30 2014

Note: "fair" indicated few or no clouds below 12,000 feet with no
significant weather and/or obstructions to visibility.

...NORTHEAST WASHINGTON AND NORTHERN IDAHO PANHANDLE...

CITY           SKY/WX    TMP DP  RH WIND       PRES   REMARKS
SPOKANE INTL   MOCLDY    62  42  47 SW13      29.83S
SPOKANE DOWNTO MOCLDY    67  41  38 SW5       29.83S
COEUR D ALENE  MOCLDY    64  43  45 S6        29.82S
DEER PARK      PTCLDY    61  40  45 S7        29.82R
SANDPOINT      MOCLDY    57  46  67 W3        29.79S

...SOUTHEAST WASHINGTON AND SOUTHERN IDAHO PANHANDLE...

CITY           SKY/WX    TMP DP  RH WIND       PRES   REMARKS
WALLA WALLA    PTCLDY    67  47  48 S7        29.92R
PULLMAN/MOSCOW CLOUDY    65  42  43 SW14      29.92R
LEWISTON       CLOUDY    72  46  39 NW14G21   29.85R
LOWELL           N/A     63  53  70 N3        29.85S

...COLUMBIA BASIN...

CITY           SKY/WX    TMP DP  RH WIND       PRES   REMARKS
EPHRATA        PTCLDY    68  43  40 W9        29.84R
MOSES LAKE     PTCLDY    66  45  46 W8        29.86R
TRI CITIES     MOCLDY    69  51  52 NW14G23   29.88R
HERMISTON      MOCLDY    68  49  50 SW12      29.89R
PENDLETON      PTCLDY    66  46  48 W20       29.91R

...EAST SLOPES CASCADES...

CITY           SKY/WX    TMP DP  RH WIND       PRES   REMARKS
THE DALLES     CLOUDY    70  51  51 NW10      29.91F
ELLENSBURG     PTCLDY    61  49  64 W14       29.91F
STAMPEDE PASS  FOG       49  47  93 VRB6      30.00  VSB 1/2
WENATCHEE      PTCLDY    65  46  50 N8        29.87S
OMAK           MOCLDY    61  43  51 NW8       29.84R

...SOUTHERN BRITISH COLUMBIA...

CITY           SKY/WX    TMP DP  RH WIND       PRES   REMARKS
PENTICTON      PTCLDY    54  45  71 CALM      29.86
CRANBROOK      PTCLDY    57  46  67 W3        29.82S

...WESTERN MONTANA...

CITY           SKY/WX    TMP DP  RH WIND       PRES   REMARKS
MISSOULA       CLOUDY    70  36  28 NW10      29.86R

...NEIGHBORING CITIES...

CITY           SKY/WX    TMP DP  RH WIND       PRES   REMARKS
SEATTLE        CLOUDY    63  55  75 SW3       29.96S
CALGARY        MOCLDY    63  39  42 NW14G22   29.70S



USA.gov is the U.S. government's official web portal to all federal, state and local government web resources and services.